When you browse on this site, cookies collect data to enhance your experience and personalize the content and advertising you see.
Visit our Privacy Policy to learn more. By continuing to use the site, you agree to this use of cookies and data.
  • In Czech Republic
  • List of Countries
  • For 7 days
  • Water Temperature
  • Satellite Maps
  • Weather Map
  • Weather Widgets
  • user-avatar
    Login

    Hourly Weather Saint John's

    Today, 23 April, Tuesday

    Time Temperature Precipitation Wind Pressure Humidity
    00:00 +7°C° 0.2 mm 3 mps 760 mmHg 94%
    01:00 +5°C° 0.2 mm 3 mps 760 mmHg 91%
    02:00 +4°C° 0.2 mm 3 mps 760 mmHg 89%
    03:00 +4°C° 0.4 mm 3 mps 760 mmHg 88%
    04:00 +3°C° 0.4 mm 3 mps 761 mmHg 88%
    05:00 +3°C° 0.4 mm 3 mps 761 mmHg 88%
    06:00 +3°C° 0.2 mm 3 mps 761 mmHg 87%
    07:00 +3°C° 0.2 mm 3 mps 762 mmHg 86%
    08:00 +3°C° 0.2 mm 3 mps 762 mmHg 85%
    09:00 +4°C° 0 mm 3 mps 762 mmHg 82%
    10:00 +5°C° 0 mm 3 mps 763 mmHg 80%
    11:00 +5°C° 0 mm 4 mps 763 mmHg 78%
    12:00 +5°C° 0 mm 4 mps 763 mmHg 77%
    13:00 +5°C° 0 mm 4 mps 763 mmHg 75%
    14:00 +3°C° 0 mm 5 mps 763 mmHg 74%
    15:00 +2°C° 0 mm 5 mps 763 mmHg 75%
    16:00 +1°C° 0 mm 5 mps 763 mmHg 77%
    17:00 0°C° 0 mm 5 mps 763 mmHg 78%
    18:00 0°C° 0 mm 5 mps 763 mmHg 80%
    19:00 0°C° 0 mm 5 mps 763 mmHg 81%
    20:00 -1°C° 0 mm 5 mps 763 mmHg 83%
    21:00 -2°C° 0 mm 6 mps 763 mmHg 83%
    22:00 -2°C° 0 mm 6 mps 762 mmHg 83%
    23:00 -2°C° 0 mm 6 mps 762 mmHg 84%

    Tomorrow, 24 April, Wednesday

    Time Temperature Precipitation Wind Pressure Humidity
    00:00 -2°C° 0.1 mm 6 mps 762 mmHg 84%
    01:00 -2°C° 0.1 mm 7 mps 761 mmHg 85%
    02:00 -3°C° 0.1 mm 7 mps 760 mmHg 85%
    03:00 -4°C° 0.4 mm 8 mps 760 mmHg 86%
    04:00 -4°C° 0.4 mm 8 mps 759 mmHg 87%
    05:00 -4°C° 0.4 mm 9 mps 758 mmHg 88%
    06:00 -4°C° 0.5 mm 10 mps 757 mmHg 89%
    07:00 -4°C° 0.5 mm 10 mps 756 mmHg 90%
    08:00 -3°C° 0.5 mm 11 mps 755 mmHg 91%
    09:00 -3°C° 2 mm 10 mps 754 mmHg 93%
    10:00 -3°C° 2 mm 10 mps 753 mmHg 95%
    11:00 -2°C° 2 mm 10 mps 751 mmHg 97%
    12:00 0°C° 1.5 mm 9 mps 750 mmHg 97%
    13:00 +2°C° 1.5 mm 7 mps 749 mmHg 98%
    14:00 +3°C° 1.5 mm 6 mps 748 mmHg 98%
    15:00 +5°C° 0 mm 5 mps 748 mmHg 98%
    16:00 +6°C° 0 mm 4 mps 748 mmHg 97%
    17:00 +8°C° 0 mm 3 mps 747 mmHg 96%
    18:00 +5°C° 0 mm 4 mps 748 mmHg 97%
    19:00 +4°C° 0 mm 4 mps 749 mmHg 97%
    20:00 +1°C° 0 mm 5 mps 750 mmHg 97%
    21:00 0°C° 0 mm 5 mps 750 mmHg 97%
    22:00 0°C° 0 mm 5 mps 751 mmHg 97%
    23:00 -1°C° 0 mm 5 mps 751 mmHg 97%

    Day after tomorrow, 25 April, Thursday

    Time Temperature Precipitation Wind Pressure Humidity
    00:00 -2°C° 0.1 mm 6 mps 752 mmHg 96%
    01:00 -2°C° 0.1 mm 6 mps 752 mmHg 96%
    02:00 -2°C° 0.1 mm 7 mps 752 mmHg 95%
    03:00 -2°C° 0 mm 7 mps 753 mmHg 95%
    04:00 -2°C° 0 mm 7 mps 753 mmHg 95%
    05:00 -2°C° 0 mm 7 mps 754 mmHg 95%
    06:00 -2°C° 0.5 mm 7 mps 754 mmHg 95%
    07:00 -2°C° 0.5 mm 7 mps 754 mmHg 95%
    08:00 -2°C° 0.5 mm 8 mps 754 mmHg 95%
    09:00 -2°C° 2 mm 8 mps 754 mmHg 95%
    10:00 -3°C° 2 mm 9 mps 754 mmHg 95%
    11:00 -3°C° 2 mm 9 mps 754 mmHg 96%
    12:00 -1°C° 1.6 mm 9 mps 754 mmHg 96%
    13:00 -1°C° 1.6 mm 9 mps 753 mmHg 96%
    14:00 -1°C° 1.6 mm 9 mps 753 mmHg 97%
    15:00 -1°C° 1.8 mm 9 mps 752 mmHg 97%
    16:00 -1°C° 1.8 mm 9 mps 751 mmHg 97%
    17:00 -1°C° 1.8 mm 9 mps 750 mmHg 97%
    18:00 -1°C° 1.7 mm 9 mps 750 mmHg 98%
    19:00 -1°C° 1.7 mm 9 mps 749 mmHg 98%
    20:00 0°C° 1.7 mm 9 mps 749 mmHg 98%
    21:00 0°C° 0.2 mm 8 mps 748 mmHg 98%
    22:00 0°C° 0.2 mm 7 mps 747 mmHg 98%
    23:00 +1°C° 0.2 mm 6 mps 746 mmHg 99%

    26 April, Friday

    Time Temperature Precipitation Wind Pressure Humidity
    00:00 +1°C° 0 mm 5 mps 746 mmHg 99%
    01:00 +2°C° 0 mm 3 mps 745 mmHg 99%
    02:00 +4°C° 0 mm 2 mps 745 mmHg 99%
    03:00 +4°C° 0 mm 2 mps 745 mmHg 99%
    04:00 +3°C° 0 mm 3 mps 745 mmHg 98%
    05:00 +4°C° 0 mm 4 mps 745 mmHg 98%
    06:00 +3°C° 0.2 mm 4 mps 745 mmHg 98%
    07:00 +2°C° 0.2 mm 5 mps 745 mmHg 97%
    08:00 +2°C° 0.2 mm 5 mps 745 mmHg 97%
    09:00 +2°C° 0 mm 6 mps 746 mmHg 95%
    10:00 +2°C° 0 mm 7 mps 746 mmHg 94%
    11:00 +1°C° 0 mm 8 mps 746 mmHg 92%
    12:00 +1°C° 0 mm 9 mps 747 mmHg 92%
    13:00 +1°C° 0 mm 9 mps 747 mmHg 91%
    14:00 +1°C° 0 mm 9 mps 748 mmHg 91%
    15:00 0°C° 0 mm 9 mps 749 mmHg 91%
    16:00 0°C° 0 mm 9 mps 750 mmHg 91%
    17:00 -1°C° 0 mm 9 mps 751 mmHg 92%
    18:00 -1°C° 0 mm 8 mps 752 mmHg 93%
    19:00 -1°C° 0 mm 7 mps 753 mmHg 94%
    20:00 -2°C° 0 mm 6 mps 753 mmHg 95%
    21:00 -2°C° 0 mm 6 mps 754 mmHg 95%
    22:00 -1°C° 0 mm 5 mps 754 mmHg 95%
    23:00 -1°C° 0 mm 5 mps 754 mmHg 95%

    27 April, Saturday

    Time Temperature Precipitation Wind Pressure Humidity
    00:00 -1°C° 0 mm 4 mps 755 mmHg 95%
    01:00 0°C° 0 mm 3 mps 755 mmHg 96%
    02:00 +1°C° 0 mm 2 mps 755 mmHg 97%
    03:00 +1°C° 0 mm 2 mps 755 mmHg 97%
    04:00 +1°C° 0 mm 1 mps 755 mmHg 97%
    05:00 +1°C° 0 mm 1 mps 756 mmHg 98%
    06:00 +1°C° 0 mm 2 mps 756 mmHg 95%
    07:00 +2°C° 0 mm 2 mps 756 mmHg 93%
    08:00 +2°C° 0 mm 3 mps 756 mmHg 91%
    09:00 +1°C° 0 mm 4 mps 756 mmHg 89%
    10:00 +2°C° 0 mm 5 mps 755 mmHg 87%
    11:00 +3°C° 0 mm 6 mps 755 mmHg 86%
    12:00 +3°C° 0 mm 7 mps 755 mmHg 85%
    13:00 +3°C° 0 mm 7 mps 754 mmHg 84%
    14:00 +4°C° 0 mm 8 mps 754 mmHg 84%
    15:00 +2°C° 0.1 mm 8 mps 753 mmHg 87%
    16:00 +2°C° 0.1 mm 9 mps 753 mmHg 90%
    17:00 +2°C° 0.1 mm 9 mps 752 mmHg 93%
    18:00 +2°C° 0.7 mm 9 mps 751 mmHg 94%
    19:00 +3°C° 0.7 mm 10 mps 751 mmHg 94%
    20:00 +3°C° 0.7 mm 10 mps 750 mmHg 95%
    21:00 +5°C° 0.5 mm 9 mps 750 mmHg 95%
    22:00 +6°C° 0.5 mm 9 mps 750 mmHg 96%
    23:00 +6°C° 0.5 mm 8 mps 749 mmHg 96%

    28 April, Sunday

    Time Temperature Precipitation Wind Pressure Humidity
    00:00 +5°C° 0 mm 8 mps 749 mmHg 92%
    01:00 +4°C° 0 mm 7 mps 749 mmHg 89%
    02:00 +2°C° 0 mm 7 mps 749 mmHg 86%
    03:00 +2°C° 0 mm 6 mps 750 mmHg 88%
    04:00 +1°C° 0 mm 6 mps 751 mmHg 91%
    05:00 +1°C° 0 mm 5 mps 751 mmHg 94%
    06:00 +3°C° 0 mm 6 mps 752 mmHg 88%
    07:00 +4°C° 0 mm 6 mps 752 mmHg 82%
    08:00 +6°C° 0 mm 7 mps 753 mmHg 75%
    09:00 +8°C° 0 mm 7 mps 753 mmHg 67%
    10:00 +9°C° 0 mm 8 mps 754 mmHg 59%
    11:00 +10°C° 0 mm 8 mps 754 mmHg 50%
    12:00 +9°C° 0 mm 8 mps 754 mmHg 49%
    13:00 +8°C° 0 mm 9 mps 755 mmHg 48%
    14:00 +8°C° 0 mm 9 mps 755 mmHg 47%
    15:00 +7°C° 0 mm 8 mps 756 mmHg 49%
    16:00 +6°C° 0 mm 8 mps 756 mmHg 50%
    17:00 +5°C° 0 mm 8 mps 756 mmHg 52%
    18:00 +4°C° 0 mm 7 mps 757 mmHg 57%
    19:00 +3°C° 0 mm 7 mps 757 mmHg 61%
    20:00 0°C° 0 mm 7 mps 758 mmHg 66%
    21:00 0°C° 0 mm 7 mps 758 mmHg 68%
    22:00 +1°C° 0 mm 6 mps 758 mmHg 70%
    23:00 +1°C° 0 mm 6 mps 759 mmHg 72%
    Show more